Wind_Speed
38 39 39 39 38 38 37 36 34 32 30 29 27 26 26 25 24 24 23 22 21 19 18 17 16 16 16 14 13 11 10 9 10 10 10 9 8 6 5 5 5 6 6 8 9 10 10 10 10 11 10 11 11 11 12 12 12 12 13 14 14 15 17 18 22 26 26 25 26 27 28 30 32 32 34 35 36 36 37 38 39 40 41 43 43
41 41 41 41 40 39 38 37 35 34 32 30 29 28 27 26 26 25 24 23 21 20 19 18 18 18 17 15 14 13 12 11 12 12 11 10 8 6 6 6 6 6 7 8 9 10 10 10 11 11 11 11 12 12 13 13 13 14 14 15 16 16 17 19 21 25 28 28 28 28 29 31 33 33 34 36 37 38 39 40 41 42 43 43 44
43 43 43 42 41 40 39 38 36 35 33 32 31 29 28 28 27 26 25 24 22 21 20 20 20 19 17 16 15 14 14 13 14 13 11 10 8 6 6 6 6 7 8 9 10 10 11 11 12 12 12 12 13 13 14 14 15 15 16 16 17 17 17 19 21 23 27 30 30 30 31 32 34 35 35 37 38 39 41 42 43 43 43 43 43
44 44 44 43 42 41 40 38 37 36 35 33 32 30 30 29 28 27 26 25 24 23 22 22 21 20 18 17 16 15 15 15 15 13 12 10 9 7 7 7 7 8 9 10 11 11 12 12 12 13 13 13 14 15 15 16 16 17 17 18 18 18 18 19 20 22 26 29 31 31 32 33 34 36 37 38 39 40 41 43 44 45 44 43 41
45 45 45 44 43 42 40 39 39 37 36 34 33 32 31 30 30 28 28 27 25 25 24 23 22 21 19 17 17 16 16 16 15 14 13 12 10 8 8 8 9 9 10 11 12 12 13 13 13 14 14 14 15 16 16 17 18 18 19 19 19 19 20 20 21 22 25 28 30 31 32 33 35 36 37 39 41 42 43 43 44 45 44 42 40
46 46 46 46 45 43 42 41 40 39 37 35 34 33 32 32 31 30 29 28 27 26 25 24 23 21 19 18 18 18 18 17 16 15 14 13 11 10 10 10 10 11 12 12 13 14 14 14 14 14 15 16 16 17 17 18 19 19 20 20 20 21 21 21 22 23 25 27 29 31 32 34 36 38 39 40 43 44 44 45 45 43 42 42 41
47 48 47 47 46 44 44 43 41 39 37 36 35 34 34 33 32 31 31 30 29 28 26 25 23 21 20 20 20 19 19 18 17 16 16 14 13 12 11 12 12 13 13 14 15 15 15 15 15 16 16 17 17 17 18 19 19 20 20 21 21 22 22 22 23 24 26 27 29 31 33 34 36 38 40 40 42 41 40 43 46 45 42 42 43
48 48 48 48 47 45 44 43 41 39 38 36 36 35 35 34 33 33 32 31 30 28 27 25 24 23 22 21 21 21 20 20 19 18 17 16 15 14 13 13 14 14 15 16 16 17 17 17 17 17 17 18 18 18 19 20 21 21 22 22 23 23 23 23 24 25 26 28 30 31 33 35 37 38 39 39 40 39 36 37 43 46 46 45 45
49 49 49 49 48 46 44 43 41 40 39 38 37 37 36 36 35 34 33 32 31 29 27 26 25 25 24 23 23 23 22 21 20 19 19 17 17 16 15 15 16 16 17 17 18 19 19 19 18 18 18 19 19 19 20 21 22 22 23 23 23 24 24 24 25 26 27 29 30 31 33 36 37 37 38 37 35 37 37 37 41 46 46 48 48
50 50 50 49 48 46 45 44 42 41 41 40 39 38 37 37 36 36 35 33 32 30 29 29 28 26 26 25 25 25 23 22 21 20 19 19 19 18 17 17 18 18 19 19 20 20 20 20 19 19 19 19 20 20 20 21 23 24 25 25 25 25 25 25 26 26 28 29 30 31 34 36 35 34 36 35 33 34 37 38 42 46 47 49 51
50 50 50 48 48 47 45 44 43 42 42 40 39 39 38 38 37 36 35 34 33 32 31 31 29 28 28 27 26 26 24 23 22 21 21 21 21 20 19 19 20 21 21 21 21 22 21 21 21 20 20 20 20 20 21 21 23 24 25 26 26 26 26 27 27 27 28 30 30 31 32 34 33 32 32 34 33 34 36 38 40 43 41 40 42
50 50 49 48 48 47 45 44 43 43 42 41 40 40 39 39 38 37 37 35 34 34 33 32 31 30 29 29 28 27 25 24 23 23 23 23 23 22 21 22 22 23 23 23 23 23 23 22 22 22 21 21 21 21 21 21 22 24 25 26 26 27 27 27 27 28 29 30 30 30 30 31 32 31 29 31 32 33 35 36 35 35 35 36 40
49 49 49 48 48 47 45 45 44 43 42 41 41 40 40 39 39 38 37 36 36 35 34 33 32 31 31 30 29 29 27 26 25 25 25 25 24 24 24 24 25 25 25 25 25 25 24 24 24 23 22 22 22 22 22 22 23 24 25 26 27 27 27 27 27 28 29 29 30 30 28 28 30 29 27 28 30 32 33 34 34 35 39 43 45
48 48 48 48 47 46 45 44 43 42 42 41 41 41 40 40 39 38 38 37 37 36 35 34 34 33 32 31 31 30 29 28 27 27 27 26 26 26 26 26 27 27 27 27 27 26 26 26 26 25 23 23 23 23 23 23 24 25 26 26 27 27 27 27 27 27 28 27 29 30 27 24 26 27 26 26 28 31 33 36 39 40 42 42 42
46 47 47 46 45 44 44 43 43 42 41 41 41 40 40 40 39 39 39 38 37 36 36 35 35 33 32 32 32 32 31 29 29 29 29 28 29 29 29 29 29 29 29 29 29 28 28 28 29 27 25 24 24 24 24 25 25 27 27 27 28 28 28 28 27 27 28 28 29 28 25 21 21 23 25 27 29 32 34 36 37 37 38 39 39
44 45 45 44 43 42 42 42 42 42 41 41 41 40 40 40 40 40 39 38 37 37 36 36 35 34 33 33 34 33 32 31 31 31 31 31 31 31 32 32 32 32 31 31 30 30 30 30 30 28 27 25 25 24 25 26 27 28 28 28 28 29 29 28 27 27 28 28 27 24 20 19 20 22 26 29 31 32 32 33 32 33 35 37 38
40 42 42 41 39 38 39 40 41 41 41 41 41 40 40 40 40 39 39 38 38 38 37 36 35 35 34 34 35 34 33 32 32 33 33 33 33 34 34 35 35 35 34 33 33 33 32 31 30 29 29 27 26 25 25 26 28 29 29 29 29 30 30 28 27 28 27 25 22 20 20 21 23 24 25 26 27 29 30 31 31 31 33 35 36
35 37 36 34 33 33 35 37 38 38 39 39 40 40 40 40 39 38 38 38 37 37 36 35 35 35 35 35 35 35 34 33 33 34 35 35 35 36 37 37 37 37 36 35 35 35 33 32 31 31 30 28 27 26 26 27 29 30 30 30 31 31 30 29 29 29 27 25 24 23 23 23 24 24 24 24 24 26 27 29 29 30 31 32 33
28 28 27 25 26 27 28 31 33 35 36 37 38 38 39 38 38 37 37 37 37 36 36 35 35 35 36 36 36 36 35 34 34 35 36 37 37 37 38 39 39 38 37 36 36 35 33 32 32 31 31 29 28 28 27 28 30 30 30 31 32 32 30 29 29 30 29 28 28 26 24 23 23 23 22 22 23 24 25 26 27 27 28 29 30
21 19 19 19 20 21 23 25 27 29 30 32 32 34 35 36 36 37 37 37 37 36 35 35 35 35 36 36 36 36 36 35 35 36 37 37 38 38 39 40 40 38 37 36 36 35 33 33 33 32 31 30 30 30 30 29 30 31 31 32 33 33 30 29 30 30 30 30 28 27 25 24 23 21 21 21 22 22 23 24 24 25 26 28 28
14 14 14 15 16 17 18 20 22 23 24 25 27 29 31 32 33 34 35 35 35 35 35 34 34 35 35 36 36 36 36 36 36 36 37 37 38 39 40 40 40 38 38 37 36 35 34 33 33 32 31 30 31 31 31 31 31 32 33 33 33 32 30 31 31 30 30 30 28 27 26 24 22 21 21 21 21 22 22 22 22 23 24 26 27
12 12 13 13 14 15 16 17 18 19 20 22 24 25 27 28 30 31 32 33 33 33 33 33 33 33 34 35 36 36 36 36 37 37 37 38 38 39 40 40 40 40 40 39 38 36 35 34 34 32 31 31 32 32 31 31 32 33 33 33 32 30 30 32 32 31 31 30 29 28 25 23 21 20 20 20 21 21 21 21 20 21 22 23 25
13 12 12 12 13 13 14 14 15 16 18 19 20 21 23 24 26 27 28 29 30 31 31 31 32 33 33 34 35 35 36 37 37 37 38 38 39 40 41 41 41 42 42 41 39 38 37 36 35 34 34 34 33 32 32 32 32 32 32 31 31 30 32 33 32 31 31 30 29 28 25 23 22 21 20 20 21 20 20 20 19 20 21 22 22
12 12 12 12 12 11 12 12 13 14 15 16 18 19 20 22 23 24 26 27 28 29 30 31 32 33 34 34 34 35 35 36 37 38 38 39 40 41 42 43 43 43 44 43 41 41 39 38 37 37 37 36 35 34 33 33 33 31 30 30 31 32 34 34 32 31 31 31 30 28 25 23 22 21 21 21 20 20 20 19 19 20 21 23 23
11 11 11 11 10 11 11 11 12 13 13 15 16 17 18 20 21 23 24 25 27 28 29 30 31 32 33 33 33 33 34 35 37 38 39 40 41 41 42 43 44 45 45 45 44 42 41 39 39 39 38 37 37 36 36 34 31 30 29 31 33 34 34 33 33 32 32 30 29 28 25 23 22 22 22 21 20 20 21 20 20 20 22 24 25
10 10 10 10 10 10 10 10 10 11 12 13 14 15 17 18 19 21 23 24 26 26 27 28 29 30 31 31 31 32 34 35 36 38 39 40 41 42 43 44 45 45 45 45 45 44 43 42 41 41 39 39 39 39 38 34 30 29 30 32 33 34 34 34 34 33 31 30 29 28 25 23 22 22 22 22 20 20 21 23 23 22 23 26 28
9 9 9 8 8 8 8 8 9 10 11 12 13 15 16 18 19 21 22 23 24 25 26 28 29 30 31 31 32 33 35 36 37 38 39 41 42 42 43 44 43 43 43 44 44 44 45 44 43 41 40 40 39 38 38 36 33 31 30 31 32 33 33 34 34 33 32 30 29 28 25 24 23 23 22 22 20 20 22 24 25 25 26 27 30
9 9 9 9 9 9 10 11 11 12 14 15 16 17 18 20 21 23 24 25 26 27 29 30 31 32 33 34 35 37 38 39 40 40 41 42 43 43 42 42 41 40 40 40 41 42 43 43 43 42 40 39 38 37 37 37 36 34 32 32 33 33 33 34 34 33 31 30 29 28 26 25 24 23 23 22 21 20 22 24 26 27 27 28 30
9 10 10 11 11 12 13 14 15 16 18 19 20 21 22 24 25 26 27 29 30 31 32 33 34 35 36 37 39 40 41 41 41 41 42 43 43 42 42 41 39 38 37 35 35 37 40 41 41 41 40 39 38 38 38 38 37 37 35 34 35 34 33 33 33 32 30 29 29 28 27 26 25 24 23 23 22 21 22 24 26 27 28 28 30
9 9 10 11 12 13 14 15 17 18 19 21 22 24 25 27 28 29 30 31 32 33 34 35 35 36 37 38 38 39 40 41 40 41 42 42 42 41 40 38 36 34 32 31 31 35 38 40 41 41 40 40 40 40 40 39 39 38 36 35 35 34 33 31 31 30 28 28 29 29 28 27 26 24 24 24 23 22 22 24 26 27 28 29 31
10 11 11 12 13 14 15 17 18 19 20 21 22 23 24 25 27 28 29 30 31 32 33 33 34 35 36 36 36 37 38 38 39 39 39 39 39 38 36 34 32 31 28 27 30 34 37 39 40 40 40 40 41 41 41 40 37 35 33 32 32 32 30 29 29 28 28 29 30 29 29 27 26 25 24 25 25 23 23 24 26 27 28 29 31
13 13 14 15 15 16 18 19 20 21 21 22 22 22 22 23 24 25 26 27 28 29 30 31 32 32 33 34 34 35 35 35 35 35 34 33 33 33 31 30 29 27 25 25 29 34 35 36 38 39 39 40 40 40 40 37 33 30 29 30 30 29 28 27 27 28 29 30 30 29 28 27 26 26 25 24 25 25 24 24 26 27 28 29 30
16 16 16 17 18 19 19 20 20 21 21 21 22 22 22 22 22 23 24 25 26 26 27 28 29 29 30 30 30 31 31 31 31 30 29 27 26 26 25 25 24 22 20 22 28 32 34 34 35 36 36 37 37 37 36 35 32 30 30 31 32 30 27 27 28 30 30 30 30 29 27 26 25 25 25 24 25 25 25 26 26 27 28 29 30
17 18 18 18 19 19 20 20 20 20 21 21 22 22 22 23 23 23 23 23 24 25 26 26 27 28 27 26 26 26 26 27 26 25 23 22 20 19 19 20 20 19 19 23 27 31 33 34 36 36 36 37 37 36 36 36 34 32 32 33 33 31 29 29 30 30 30 30 30 29 27 25 25 25 25 25 24 25 26 26 27 28 28 29 30
18 18 19 19 19 19 20 20 21 21 21 22 22 22 22 23 23 23 23 23 23 22 23 23 24 25 25 24 23 22 22 23 22 22 21 21 20 20 20 21 22 22 22 24 26 29 32 34 36 38 38 38 38 37 37 36 34 33 34 35 35 32 32 32 32 31 29 29 30 29 27 25 24 24 25 25 24 25 26 26 27 28 29 29 30
18 18 19 19 19 20 20 20 21 21 21 22 22 22 22 22 22 23 22 22 22 21 20 19 19 20 21 22 21 20 20 20 20 21 21 22 23 24 25 26 27 27 27 27 27 28 30 33 35 37 39 39 39 38 37 36 36 37 37 37 35 33 33 33 32 31 29 29 29 28 27 25 24 24 25 25 25 25 26 27 27 28 28 29 29
18 18 18 18 18 19 19 20 20 21 21 21 21 22 21 21 21 20 20 20 20 19 18 18 16 16 17 18 19 20 20 20 21 22 22 23 24 25 26 28 30 31 32 33 33 32 33 33 33 35 38 39 40 39 39 40 40 39 37 35 34 33 33 33 32 30 29 29 28 27 26 25 24 24 26 26 25 25 26 27 28 28 28 28 28
17 17 17 17 18 18 18 19 19 19 20 20 19 19 19 19 18 18 18 17 17 17 17 17 16 16 16 17 18 20 21 21 22 23 23 24 25 26 27 28 30 32 33 35 35 36 37 36 35 35 36 37 38 38 39 39 37 35 32 31 32 33 33 34 32 29 28 28 27 26 24 24 24 24 25 26 25 25 26 27 28 28 28 27 27
16 16 17 17 17 18 18 18 17 17 17 16 16 16 16 16 16 16 16 16 16 16 16 16 17 17 17 17 18 19 21 22 22 23 23 23 24 25 26 27 29 30 32 34 36 37 39 39 39 39 38 37 37 36 34 32 30 29 29 31 32 33 34 33 31 28 27 27 26 24 24 24 24 24 25 26 25 25 26 27 28 27 27 27 27
16 16 17 16 16 16 16 15 15 15 15 15 15 15 15 15 16 16 16 16 16 16 16 16 17 17 18 18 18 19 21 21 21 21 21 22 22 22 23 25 26 28 29 31 33 35 37 39 40 40 40 39 38 36 34 31 29 28 29 30 31 31 32 31 30 27 26 26 25 24 24 23 24 25 26 26 25 25 26 27 27 27 26 26 26
15 15 15 15 14 14 14 14 14 14 14 14 15 15 15 15 15 15 15 15 16 16 16 17 17 17 17 17 17 19 20 20 20 21 22 22 23 23 24 25 26 27 28 29 29 30 31 33 35 36 37 37 36 34 32 29 28 27 28 29 30 31 31 30 28 26 25 24 24 24 23 23 24 25 25 25 25 25 26 26 26 26 26 26 25
14 13 13 13 13 13 13 13 14 14 14 14 14 14 14 14 14 15 15 16 16 16 16 16 16 16 17 17 17 18 19 19 20 21 22 22 23 23 24 25 25 26 27 27 27 27 27 27 28 29 31 31 30 28 26 25 24 26 27 29 30 30 29 27 24 23 23 24 24 23 23 23 24 25 24 24 25 25 25 25 25 25 25 24 23
13 12 12 12 13 13 14 14 14 14 13 13 13 14 14 14 15 15 16 16 16 16 16 16 15 16 16 17 17 17 18 19 19 20 20 21 21 21 22 22 23 24 24 24 24 24 24 24 24 24 26 27 27 25 24 23 23 23 25 26 26 26 25 23 22 21 22 23 23 23 23 23 24 24 24 24 24 24 24 25 25 24 24 22 21
11 11 12 13 14 14 14 14 13 13 13 13 14 14 14 15 15 15 15 15 15 15 15 15 15 15 16 16 17 17 18 18 18 19 19 19 19 19 20 20 21 21 21 21 21 22 22 22 22 23 23 24 25 24 23 22 22 22 22 22 22 21 21 20 20 20 22 23 23 23 23 24 24 24 23 23 23 23 24 24 23 23 22 21 20
10 12 14 15 15 14 14 13 13 13 14 14 14 14 14 14 14 14 14 14 15 15 15 15 15 15 15 16 17 17 18 17 17 18 18 18 18 18 18 18 19 19 19 19 19 20 21 21 22 22 21 21 22 22 22 22 22 22 22 21 20 19 18 18 19 20 22 23 23 23 23 24 24 23 22 22 22 23 23 22 22 21 21 20 19
13 14 14 14 14 13 13 13 14 14 14 14 14 14 14 14 14 14 14 14 14 14 14 15 15 16 16 16 17 17 17 17 17 17 17 17 17 17 17 17 17 17 17 17 18 18 19 19 20 20 19 19 19 19 19 20 20 20 20 19 18 17 17 18 20 21 21 22 23 23 24 24 23 22 21 21 21 22 21 21 20 20 20 19 18
12 12 12 13 13 13 14 14 14 14 14 13 13 13 13 13 14 14 14 14 14 14 15 15 16 16 17 17 17 17 17 16 16 16 16 16 16 16 16 16 16 16 16 16 17 17 18 18 18 18 17 17 16 16 17 17 17 17 16 16 16 16 17 18 20 21 21 22 23 23 23 23 22 21 21 21 21 20 20 19 19 19 18 18 17
11 11 12 13 13 13 14 14 14 14 14 13 13 14 14 14 14 13 14 14 14 15 15 16 16 17 17 17 17 17 17 16 16 16 16 16 16 16 16 15 16 16 16 16 16 17 17 17 17 17 16 16 16 16 16 16 15 15 15 15 15 16 18 19 20 20 21 22 22 22 22 22 21 20 20 20 19 19 19 18 18 17 17 17 17
11 12 13 13 13 14 14 14 14 14 14 14 14 14 14 14 14 14 14 14 15 15 16 16 16 17 17 16 16 16 16 16 16 16 16 16 16 16 16 16 16 16 15 15 15 16 16 17 17 16 16 15 15 15 15 15 15 15 15 16 17 18 19 19 20 20 20 21 21 21 21 21 20 20 19 18 18 18 18 17 17 16 17 17 17
12 13 13 13 14 14 14 14 14 14 14 14 14 14 14 14 14 15 15 15 15 16 16 16 16 16 16 16 16 16 16 16 16 16 16 16 16 16 16 16 16 15 15 15 15 15 15 16 16 16 16 15 15 14 14 14 14 15 15 16 17 18 18 18 19 19 19 20 20 20 20 20 19 18 18 17 17 17 17 16 16 16 16 17 16
13 13 13 14 14 14 14 14 14 14 14 14 14 14 15 15 15 16 16 17 16 16 16 16 16 16 16 16 16 16 15 15 15 15 15 15 16 16 16 16 15 15 14 14 14 14 15 15 15 15 15 15 14 14 14 14 14 15 15 15 16 16 17 17 18 18 19 19 20 19 19 18 18 17 16 16 17 17 16 16 16 16 16 16 15
Wind_Direction
205 202 199 198 198 197 196 196 198 199 198 198 198 197 197 198 197 197 197 197 196 196 198 201 202 205 206 208 211 216 220 222 231 238 240 241 243 251 270 285 298 314 331 339 340 336 331 329 329 328 324 317 309 300 296 294 292 292 291 291 292 293 294 296 299 305 311 314 316 321 324 325 326 328 329 329 329 328 327 326 323 320 319 317 316
205 203 201 200 200 199 198 198 199 200 199 198 199 199 200 200 200 200 200 201 201 202 205 206 207 209 211 213 217 220 222 228 236 241 240 241 244 253 271 286 298 310 325 332 333 331 328 327 327 325 320 314 307 300 295 292 289 289 287 287 288 288 290 294 298 303 308 312 315 318 322 323 325 327 328 328 327 326 325 324 321 319 319 318 317
206 204 203 202 201 200 201 200 200 201 201 200 200 200 202 202 202 203 203 205 206 207 210 211 212 214 215 218 222 223 227 233 238 241 242 242 243 253 269 282 293 304 315 322 325 325 324 324 323 321 319 313 308 302 297 293 290 287 286 285 285 286 287 292 297 301 305 309 313 317 320 322 324 325 326 325 324 324 323 322 321 319 319 319 318
208 206 205 203 202 202 202 202 203 204 203 202 202 202 203 204 205 205 207 209 211 211 212 214 216 218 220 223 226 228 232 237 239 241 242 242 244 254 267 277 286 297 306 313 317 318 318 319 318 318 317 314 309 303 297 293 289 286 286 285 284 286 287 290 294 298 302 306 311 316 319 321 323 323 323 323 322 323 322 321 320 319 319 320 319
209 208 206 205 204 203 204 205 206 206 205 204 204 204 205 207 208 208 210 212 214 215 216 217 218 221 225 228 230 232 236 239 241 242 243 243 247 255 263 272 282 291 299 304 308 309 310 311 313 314 314 313 309 303 297 291 288 286 286 285 285 285 286 289 292 295 300 304 309 313 317 319 320 320 322 323 322 323 322 321 320 319 319 319 319
210 209 208 207 206 206 206 207 208 208 207 206 206 207 208 210 210 212 215 216 217 218 219 221 223 225 227 230 231 234 238 240 241 243 245 246 250 254 261 269 279 287 293 297 300 301 302 304 307 310 311 311 308 303 297 291 287 286 286 286 285 285 286 289 292 295 299 303 306 311 314 317 319 320 322 323 323 323 322 320 318 318 318 319 321
211 210 210 209 209 209 209 210 210 210 210 209 209 209 211 213 214 216 218 219 220 221 222 224 226 228 229 230 232 235 238 240 241 243 247 249 251 254 259 268 278 284 289 293 295 295 296 297 301 306 307 307 306 303 299 292 288 286 285 284 284 284 287 289 291 295 298 302 305 310 314 316 318 320 321 322 322 323 323 321 318 318 322 324 325
213 212 212 211 212 212 212 212 212 211 212 212 212 212 213 215 217 220 221 222 223 224 226 228 228 229 230 230 232 235 238 240 242 246 249 250 252 255 260 268 276 283 287 291 293 292 291 292 295 301 304 304 303 302 299 294 289 286 284 284 284 285 287 288 291 294 297 301 305 309 313 315 317 319 320 322 322 322 324 325 321 321 325 327 327
216 215 214 214 214 215 214 214 213 213 214 214 214 214 216 218 220 222 223 225 226 227 227 229 230 231 231 231 232 235 238 241 245 248 250 251 253 256 261 268 276 281 285 290 292 291 289 288 291 296 299 301 301 300 299 294 289 287 284 283 284 285 287 288 291 294 298 301 305 309 312 314 316 319 319 321 323 322 325 328 325 325 327 326 326
218 218 218 217 216 216 216 216 215 215 216 216 217 217 218 220 222 224 225 226 228 228 228 229 230 232 233 233 235 237 239 242 245 247 250 253 254 257 262 269 275 280 284 288 291 291 288 286 288 292 295 297 298 299 298 295 291 289 287 286 286 286 288 289 292 295 298 301 305 308 310 312 315 318 317 318 324 326 328 329 325 324 326 325 324
220 221 221 220 219 218 218 218 218 218 218 219 219 219 220 222 224 226 227 228 229 230 230 231 232 233 234 235 237 239 242 244 244 247 251 254 255 258 263 269 274 279 283 287 290 290 288 286 285 287 290 293 296 298 298 295 292 289 287 287 287 288 289 290 293 295 298 301 304 306 307 309 312 314 316 321 327 329 328 326 323 322 324 324 322
223 223 223 222 221 221 220 221 220 220 221 221 222 222 223 224 226 227 229 230 232 232 233 233 234 235 236 237 238 240 242 243 244 248 253 255 257 260 264 269 274 278 282 286 288 289 288 286 283 284 286 290 293 296 297 295 292 288 286 285 285 286 287 289 291 294 297 299 300 301 304 306 309 314 322 326 326 326 323 320 318 317 315 312 310
225 225 225 225 224 223 223 223 223 223 223 224 224 224 225 227 228 230 232 233 235 235 235 236 236 237 238 239 241 242 242 242 243 249 253 255 258 261 265 270 274 278 281 285 287 288 288 286 282 281 283 287 291 294 295 295 293 288 285 284 283 283 284 285 288 291 292 294 295 298 303 308 310 317 326 326 322 320 316 312 309 307 306 306 306
227 227 227 227 226 225 225 226 226 227 226 226 226 227 228 230 231 233 234 236 237 237 238 238 239 240 241 242 244 244 243 242 245 249 253 256 259 263 266 270 274 278 281 284 286 287 288 287 283 280 280 284 288 291 294 295 294 291 287 284 283 282 282 283 286 288 288 289 292 297 305 312 314 319 323 320 313 309 304 303 304 305 306 308 309
229 229 229 229 229 228 229 229 230 230 229 229 229 230 231 233 234 235 237 238 240 241 241 242 243 243 244 245 246 246 245 244 247 250 254 256 260 264 267 271 275 278 281 282 285 286 286 286 283 279 279 283 286 289 291 294 294 292 290 287 285 283 281 283 285 285 284 286 293 300 309 315 315 314 311 304 298 297 297 299 303 306 307 309 312
233 233 233 233 234 234 234 234 233 232 231 231 232 233 234 235 236 237 239 241 243 244 244 244 245 246 247 247 247 248 248 246 248 252 255 257 260 265 269 273 276 278 280 282 284 285 285 284 282 280 279 281 284 286 288 291 292 292 292 289 286 284 282 283 284 282 285 292 298 303 306 306 301 297 294 293 295 297 300 303 306 307 309 312 316
239 238 238 239 240 240 240 238 237 235 234 234 235 237 238 238 239 239 241 243 246 247 247 246 248 249 249 249 249 250 251 250 251 254 257 259 261 265 270 274 276 279 281 282 283 283 283 282 280 278 278 280 283 284 286 288 291 292 292 290 287 285 284 284 282 283 289 295 293 290 292 295 295 294 293 295 297 300 303 307 310 311 312 315 319
239 239 240 242 244 245 244 243 241 239 238 239 240 240 241 241 242 242 244 247 250 252 251 250 251 252 251 251 251 252 254 253 254 256 259 261 263 267 270 273 275 278 280 281 283 283 283 282 279 278 279 280 282 283 284 287 289 291 291 290 287 286 285 285 284 287 291 292 288 290 298 301 299 296 295 296 298 300 305 308 311 312 313 316 320
236 238 240 242 244 246 247 247 246 244 244 244 244 245 245 246 246 246 248 250 253 255 255 254 254 254 254 254 253 254 256 255 255 257 259 262 264 267 270 272 274 276 278 280 282 282 282 281 279 277 278 280 281 283 284 285 288 289 289 287 286 285 285 284 284 286 288 289 292 299 304 302 297 294 294 297 300 303 306 307 309 312 314 317 320
235 237 241 242 243 245 245 247 248 247 248 249 249 249 250 249 249 250 251 253 255 256 256 256 256 256 255 255 255 256 257 258 257 258 260 262 265 267 269 270 272 274 277 279 280 280 280 279 278 277 277 279 281 282 283 284 286 287 287 285 284 285 284 282 282 284 286 290 296 302 302 298 296 295 297 299 302 303 304 305 308 312 314 318 321
233 233 234 234 236 239 240 243 246 247 249 251 251 252 252 251 252 253 254 256 257 257 258 258 258 258 257 257 256 257 258 259 259 260 261 262 264 266 267 269 271 273 275 276 276 276 277 278 278 277 276 277 279 281 283 284 285 285 286 286 285 284 283 281 281 282 285 291 296 297 295 295 295 295 297 300 302 302 302 303 308 312 315 318 320
215 215 218 220 225 230 234 239 243 245 248 249 250 251 252 252 253 254 255 257 257 258 259 259 259 259 258 257 257 257 258 259 260 260 261 262 264 265 266 268 270 272 272 272 272 274 275 277 278 276 274 274 276 279 281 282 282 283 284 283 281 280 279 278 279 281 285 290 292 291 292 293 294 294 295 297 298 298 299 303 308 312 315 317 317
197 200 204 210 216 222 229 234 238 241 243 245 247 249 250 252 253 254 255 256 257 257 258 258 258 258 257 255 256 256 256 258 260 261 262 262 263 265 266 268 269 270 270 270 271 272 274 274 275 274 273 273 275 276 278 279 278 279 279 278 276 274 274 275 278 282 285 287 287 288 291 293 292 292 294 294 295 296 298 302 308 312 314 316 317
189 194 200 207 213 218 224 228 232 237 239 243 246 248 249 251 252 253 254 254 255 256 256 256 256 256 255 255 256 257 258 260 261 263 263 263 264 264 266 267 268 269 269 270 270 271 272 273 273 273 272 273 274 276 276 275 275 275 274 272 271 272 273 275 277 279 281 282 284 287 290 290 290 291 292 292 293 294 296 301 307 311 312 313 316
191 196 202 206 209 214 219 224 230 236 239 243 246 247 250 251 251 252 253 254 255 255 255 255 256 256 257 259 262 264 265 265 265 266 266 266 266 267 267 267 267 267 268 269 270 271 271 271 271 271 271 272 274 275 274 273 273 273 270 268 270 273 274 275 276 276 278 280 282 286 287 287 288 289 289 290 291 292 296 299 304 308 309 310 314
195 196 200 204 206 212 220 225 232 238 242 247 249 250 252 253 253 254 255 255 256 257 257 258 260 261 263 266 269 270 270 270 270 269 269 269 268 268 267 267 266 266 266 268 269 271 271 270 269 270 272 273 274 275 275 276 274 269 264 266 271 274 273 273 275 276 277 279 280 283 284 285 286 286 286 287 289 291 295 299 302 306 309 311 313
198 198 203 210 216 224 233 238 245 251 254 257 259 259 259 259 258 258 258 258 260 261 262 263 265 267 269 271 272 272 272 272 272 272 272 272 272 272 271 271 270 269 267 267 267 268 270 272 273 274 274 274 274 276 278 279 277 272 268 269 271 271 271 272 273 274 275 277 278 280 282 282 283 283 283 284 286 290 294 298 303 307 311 313 314
211 212 218 227 233 241 248 252 256 259 260 262 263 263 264 264 264 264 265 265 265 264 265 266 267 268 270 271 272 272 272 272 274 275 276 277 276 276 276 275 275 272 269 267 265 265 268 270 271 273 273 273 274 275 276 277 277 276 276 274 271 271 271 271 271 271 272 274 276 278 279 279 279 281 281 282 283 287 292 297 302 307 311 314 315
224 227 231 237 243 248 253 257 259 261 262 263 263 264 265 265 265 266 266 266 266 266 266 267 268 269 271 272 273 274 274 274 276 278 278 278 277 278 279 278 278 277 272 267 263 262 263 264 265 267 268 269 271 272 272 272 272 273 274 272 271 272 271 269 268 269 271 273 275 276 277 277 278 279 280 280 282 286 291 296 301 306 310 313 314
237 241 245 249 253 257 260 263 265 266 266 266 265 265 266 266 266 267 267 267 268 268 269 270 271 272 272 273 274 275 276 277 278 278 278 278 279 279 280 280 280 279 274 267 261 259 260 261 262 264 266 267 269 271 271 271 270 271 271 270 270 270 268 267 268 270 270 272 273 274 275 275 277 278 279 281 283 286 290 295 300 305 309 311 313
245 248 252 254 258 262 265 267 270 271 272 272 272 271 270 269 269 270 270 270 270 270 271 272 272 273 274 274 274 275 275 276 277 278 279 281 282 282 283 284 282 280 275 268 262 261 261 263 265 267 268 270 271 272 272 271 270 270 270 269 269 269 268 269 272 272 270 269 269 271 272 273 275 277 279 281 285 287 290 295 299 303 307 310 312
249 252 255 258 261 265 267 269 271 272 273 275 275 275 274 273 272 272 272 273 273 272 273 273 273 274 274 275 276 276 277 278 279 279 281 282 284 286 287 287 286 285 281 273 269 267 266 266 268 270 271 272 273 273 273 273 272 272 272 274 275 274 272 275 277 273 268 267 267 267 268 270 273 276 278 281 286 289 293 296 299 302 306 309 311
250 253 258 263 267 269 270 271 272 273 274 276 276 277 277 276 274 274 273 274 275 275 274 273 274 274 275 276 277 278 279 281 282 284 285 286 287 289 291 290 290 288 277 267 268 272 273 273 272 273 273 273 275 275 276 277 277 276 275 279 282 281 278 279 279 272 266 265 265 265 266 268 271 275 278 282 286 290 294 297 300 303 305 308 311
255 259 264 269 271 272 273 274 276 277 278 278 278 278 278 278 277 276 275 275 276 276 276 277 277 278 278 278 278 278 279 279 280 282 285 286 288 290 289 287 287 281 267 258 261 266 270 273 275 277 277 277 278 279 279 279 278 277 276 281 284 281 276 277 278 273 266 263 264 264 265 267 270 274 278 281 285 289 293 297 300 303 306 309 311
262 267 271 273 275 277 278 279 280 281 281 281 281 280 279 279 278 278 277 277 276 276 277 277 279 280 281 280 279 278 278 279 279 279 278 276 274 273 272 271 270 267 263 261 261 263 265 268 271 274 276 277 277 277 276 277 277 278 279 283 284 277 270 273 277 274 266 262 262 263 264 267 270 274 278 281 284 289 292 296 300 303 306 309 311
271 274 276 278 279 280 281 281 282 282 282 282 282 282 281 280 279 278 278 278 278 278 278 277 277 278 280 281 282 282 281 281 281 279 277 274 271 270 270 269 267 264 262 261 262 262 263 264 266 268 270 272 273 274 274 276 279 280 281 284 281 271 266 272 278 274 265 261 261 261 263 266 270 273 276 280 284 289 292 296 299 302 305 308 310
277 279 280 281 281 281 281 282 282 282 282 282 281 281 280 279 278 278 278 279 280 280 281 281 279 278 278 280 282 284 284 283 282 280 279 278 276 274 272 271 270 269 267 265 264 263 263 263 263 263 264 266 268 270 272 274 276 278 280 280 275 267 268 276 280 273 263 260 260 260 263 266 269 272 276 280 284 288 292 296 298 301 304 307 308
281 282 282 283 283 284 284 283 282 281 280 280 279 278 278 278 278 280 280 282 283 284 284 285 285 282 281 281 281 283 283 283 283 283 282 281 280 279 276 274 273 273 272 270 268 266 265 264 263 262 263 264 266 268 270 272 274 278 279 276 271 269 273 279 279 271 262 259 259 260 263 265 268 272 276 280 285 289 292 295 298 301 303 305 306
284 285 286 285 285 285 283 282 281 279 278 278 277 278 279 280 282 283 284 285 286 287 287 288 288 287 287 285 283 284 284 284 285 286 285 285 284 283 282 280 278 276 274 273 271 269 267 266 265 264 264 265 266 267 268 270 273 276 276 273 272 272 274 277 277 270 262 259 259 260 262 266 269 272 276 280 285 289 292 295 297 300 302 304 305
284 285 285 284 283 282 280 279 278 277 277 280 281 283 285 285 285 286 287 287 288 289 289 290 290 291 292 291 289 289 290 291 293 293 292 292 292 290 289 288 285 282 279 276 274 272 271 269 269 268 267 267 267 268 268 268 269 272 273 271 270 270 272 275 275 268 259 258 260 261 263 266 269 272 276 280 285 289 293 294 296 299 301 303 304
282 282 282 281 281 280 279 279 280 281 283 286 286 287 288 287 287 287 287 287 289 290 291 292 293 293 294 295 295 296 299 301 302 303 303 303 304 303 302 300 297 294 292 289 286 283 280 277 275 275 273 272 271 270 270 269 268 267 267 267 268 270 273 275 271 262 256 257 260 261 263 266 269 272 276 281 286 289 292 293 295 298 299 301 302
284 285 286 285 285 285 285 285 287 287 288 288 287 287 287 286 287 288 288 289 291 292 293 294 296 296 297 298 299 300 303 304 305 306 307 308 309 309 309 308 306 304 302 301 300 297 294 289 284 281 278 275 272 270 270 269 268 266 265 266 269 272 272 269 260 254 253 256 258 261 264 266 269 273 278 282 286 289 291 293 294 296 297 299 301
286 287 289 289 290 291 290 289 288 287 286 285 285 286 286 287 288 289 290 291 292 293 293 295 296 296 297 299 299 300 301 302 303 305 307 309 311 312 313 312 311 309 308 307 306 304 301 298 292 286 282 279 275 271 269 269 269 268 268 268 269 269 265 258 252 251 254 257 259 262 265 268 271 275 280 284 287 289 290 292 293 295 296 298 301
281 285 289 292 292 292 289 286 285 285 285 286 286 286 287 288 288 289 290 290 291 291 292 292 293 294 295 295 297 298 299 301 303 305 307 309 312 314 315 316 315 314 311 310 308 306 304 301 296 291 287 283 279 275 271 269 267 267 266 266 266 263 258 253 252 253 255 258 261 264 267 270 273 277 281 285 287 288 290 292 293 293 295 298 300
282 286 288 288 285 283 282 282 283 284 285 286 286 286 287 287 287 287 288 288 289 290 290 290 291 291 291 293 295 296 298 300 302 304 306 309 312 315 317 317 317 316 313 312 310 308 306 304 301 297 294 290 286 281 276 270 266 264 264 262 260 256 252 252 253 254 257 261 264 267 270 273 276 280 283 286 287 288 289 291 292 293 296 298 299
281 281 280 278 276 277 279 280 281 282 283 283 285 285 286 287 287 287 287 288 287 287 288 288 289 290 291 292 294 295 297 299 301 303 306 309 312 314 316 316 316 315 313 311 311 310 309 307 306 304 302 298 292 285 279 273 268 265 262 259 256 254 252 253 255 257 260 264 267 269 273 276 278 282 284 285 287 288 289 290 291 293 295 297 297
271 271 272 273 275 278 280 280 281 283 283 284 286 286 286 286 286 285 286 286 285 284 285 286 288 290 292 293 294 296 297 298 300 301 304 307 310 312 314 315 314 313 311 310 309 309 309 309 308 307 305 301 294 288 284 280 276 272 268 264 261 259 258 258 260 262 264 267 269 272 276 278 280 282 283 284 286 287 288 289 292 293 295 296 296
269 271 273 276 277 278 280 282 283 284 285 285 286 285 284 283 283 282 281 281 282 283 285 287 289 291 292 293 294 295 296 297 299 300 302 304 307 310 312 314 314 312 311 310 308 306 307 308 309 308 305 301 294 289 286 284 281 279 277 273 269 266 264 264 265 267 268 270 272 274 276 278 279 281 283 283 285 286 288 289 291 293 294 296 296
272 274 275 277 278 279 280 281 281 281 281 280 280 279 278 278 278 278 278 280 281 283 285 287 289 290 291 292 292 293 294 296 298 299 301 303 305 308 311 313 312 312 312 312 309 307 306 306 306 305 304 300 296 291 287 284 281 279 276 272 270 268 268 268 269 270 271 272 273 274 276 278 279 280 282 283 285 286 288 289 291 294 296 296 295
274 276 277 279 279 279 279 278 276 276 275 274 273 274 274 274 275 276 277 279 281 283 285 286 287 288 289 290 290 291 293 295 297 299 301 303 304 306 309 309 308 310 312 313 312 310 307 305 303 302 300 298 295 292 288 284 280 276 273 272 271 271 271 272 272 272 272 273 274 275 276 277 278 279 281 284 285 286 287 289 292 294 294 292 290
275 276 277 277 276 275 275 274 273 273 272 271 271 272 271 271 273 275 276 279 280 281 283 285 286 287 287 288 289 290 292 294 298 301 303 304 305 307 308 307 306 309 311 312 311 310 307 304 303 301 298 296 294 291 289 286 282 279 277 275 274 274 274 273 273 274 274 274 275 275 275 276 278 280 282 284 285 285 287 289 290 290 289 289 290
Height
1524 1526 1528 1530 1533 1535 1538 1540 1542 1544 1546 1548 1549 1550 1552 1554 1555 1557 1559 1560 1561 1561 1562 1563 1564 1566 1566 1567 1567 1567 1567 1567 1568 1569 1569 1569 1569 1568 1568 1567 1567 1567 1567 1567 1567 1567 1567 1567 1566 1565 1564 1563 1562 1561 1561 1560 1559 1559 1558 1557 1557 1556 1554 1553 1551 1549 1548 1549 1548 1548 1547 1545 1543 1542 1540 1538 1536 1534 1532 1530 1527 1524 1522 1519 1516
1520 1523 1525 1528 1530 1533 1535 1537 1539 1541 1543 1545 1547 1548 1550 1552 1553 1555 1556 1558 1559 1560 1560 1561 1563 1564 1564 1565 1565 1565 1565 1566 1567 1567 1568 1567 1567 1566 1566 1566 1566 1565 1565 1565 1566 1566 1565 1565 1564 1563 1562 1561 1560 1559 1558 1558 1557 1557 1556 1555 1554 1554 1552 1551 1550 1547 1546 1546 1546 1545 1544 1542 1540 1539 1537 1534 1532 1530 1528 1526 1523 1520 1518 1515 1512
1518 1520 1523 1525 1527 1530 1532 1534 1536 1538 1540 1542 1544 1546 1548 1550 1551 1553 1554 1556 1557 1558 1559 1560 1561 1561 1562 1562 1562 1563 1563 1564 1565 1566 1566 1566 1565 1564 1564 1564 1564 1564 1564 1564 1564 1564 1563 1563 1562 1561 1560 1559 1558 1557 1556 1556 1555 1554 1554 1553 1552 1551 1551 1550 1548 1546 1544 1543 1542 1542 1541 1539 1537 1535 1534 1531 1529 1526 1523 1521 1518 1516 1513 1510 1507
1515 1517 1520 1523 1525 1527 1529 1532 1534 1535 1537 1539 1541 1543 1545 1547 1549 1551 1552 1553 1554 1555 1556 1558 1559 1559 1559 1560 1560 1560 1561 1562 1563 1564 1564 1564 1563 1562 1562 1562 1562 1562 1562 1562 1562 1562 1561 1561 1560 1559 1558 1557 1556 1555 1555 1554 1553 1552 1551 1551 1550 1549 1549 1548 1546 1545 1543 1541 1540 1539 1538 1536 1534 1532 1530 1528 1525 1523 1520 1517 1513 1511 1508 1506 1503
1512 1514 1517 1519 1522 1524 1526 1528 1530 1532 1534 1537 1539 1541 1543 1545 1546 1548 1549 1551 1552 1553 1554 1555 1556 1556 1557 1557 1558 1559 1560 1561 1561 1561 1561 1561 1561 1561 1560 1561 1561 1560 1560 1560 1560 1560 1560 1559 1558 1557 1556 1555 1555 1554 1553 1552 1551 1550 1549 1548 1548 1547 1546 1545 1544 1543 1541 1539 1537 1536 1535 1533 1531 1529 1527 1524 1520 1518 1516 1513 1509 1506 1504 1502 1499
1509 1511 1514 1516 1518 1520 1522 1524 1526 1529 1531 1534 1536 1538 1540 1542 1544 1545 1547 1548 1549 1550 1551 1552 1553 1554 1554 1555 1556 1557 1558 1559 1559 1559 1559 1559 1559 1559 1559 1559 1559 1559 1558 1558 1558 1558 1558 1557 1556 1555 1554 1553 1553 1552 1551 1550 1549 1548 1547 1546 1545 1544 1543 1542 1541 1540 1539 1537 1535 1534 1532 1530 1527 1525 1523 1520 1516 1513 1510 1508 1505 1503 1500 1497 1495
1505 1508 1510 1512 1514 1516 1518 1520 1523 1526 1529 1531 1533 1535 1537 1539 1541 1542 1544 1545 1546 1547 1548 1549 1550 1551 1551 1552 1553 1555 1556 1557 1557 1557 1557 1556 1556 1556 1557 1557 1557 1556 1556 1556 1556 1556 1555 1555 1554 1553 1552 1551 1551 1550 1549 1548 1546 1545 1545 1543 1542 1541 1540 1539 1538 1537 1536 1534 1532 1531 1528 1526 1524 1521 1519 1516 1513 1510 1507 1503 1499 1498 1496 1493 1490
1502 1504 1506 1508 1511 1512 1515 1518 1520 1523 1526 1528 1530 1532 1534 1536 1538 1540 1541 1542 1543 1545 1546 1547 1548 1548 1549 1550 1551 1552 1553 1554 1554 1554 1554 1554 1554 1554 1554 1554 1554 1554 1554 1554 1553 1553 1553 1552 1552 1551 1550 1549 1548 1547 1546 1545 1544 1543 1542 1541 1539 1538 1537 1536 1535 1534 1533 1531 1529 1527 1525 1522 1520 1518 1515 1512 1510 1507 1505 1501 1496 1492 1490 1488 1487
1499 1502 1503 1504 1507 1509 1512 1515 1517 1520 1522 1525 1527 1529 1531 1533 1535 1536 1538 1539 1541 1542 1544 1545 1545 1546 1546 1547 1548 1549 1550 1551 1551 1551 1551 1551 1551 1551 1552 1552 1552 1552 1552 1551 1551 1551 1550 1550 1549 1548 1547 1546 1546 1545 1543 1542 1541 1540 1539 1537 1536 1535 1534 1533 1532 1531 1529 1527 1525 1524 1521 1519 1516 1514 1511 1509 1507 1503 1501 1498 1493 1488 1486 1483 1482
1497 1499 1500 1502 1504 1506 1509 1512 1514 1517 1519 1521 1524 1526 1528 1530 1532 1533 1535 1537 1538 1540 1541 1542 1542 1543 1543 1544 1545 1546 1547 1548 1549 1549 1549 1548 1548 1548 1549 1549 1549 1549 1549 1548 1548 1548 1547 1547 1546 1545 1545 1544 1543 1542 1541 1540 1538 1536 1535 1534 1533 1531 1530 1529 1528 1527 1526 1524 1522 1520 1517 1515 1513 1511 1509 1506 1504 1501 1497 1494 1490 1486 1484 1480 1477
1494 1496 1498 1500 1501 1504 1506 1509 1511 1514 1516 1519 1521 1523 1525 1527 1529 1531 1532 1534 1535 1536 1538 1538 1539 1540 1540 1541 1542 1543 1544 1545 1546 1546 1546 1546 1545 1545 1546 1546 1546 1546 1546 1545 1545 1545 1544 1544 1543 1543 1542 1541 1540 1539 1538 1537 1535 1534 1532 1530 1529 1528 1527 1526 1525 1524 1522 1520 1518 1517 1515 1512 1510 1509 1507 1503 1500 1498 1495 1492 1489 1485 1483 1480 1475
1492 1494 1497 1499 1499 1501 1504 1506 1508 1511 1513 1516 1518 1520 1523 1524 1526 1528 1529 1531 1532 1533 1534 1535 1536 1537 1537 1538 1540 1540 1542 1543 1543 1543 1543 1543 1543 1542 1543 1543 1543 1543 1543 1542 1542 1542 1541 1541 1540 1540 1539 1538 1537 1536 1535 1534 1532 1531 1529 1527 1526 1525 1524 1523 1522 1520 1519 1517 1515 1514 1512 1510 1508 1506 1504 1500 1497 1495 1493 1491 1488 1486 1483 1480 1476
1490 1493 1495 1496 1497 1498 1501 1503 1505 1508 1511 1513 1516 1518 1520 1521 1523 1524 1526 1528 1529 1530 1531 1532 1533 1534 1534 1535 1537 1538 1539 1540 1540 1540 1540 1540 1540 1539 1540 1540 1540 1540 1539 1539 1539 1538 1538 1538 1537 1537 1536 1535 1534 1533 1532 1531 1529 1527 1526 1524 1523 1522 1521 1520 1519 1518 1516 1514 1512 1511 1510 1508 1505 1503 1501 1499 1496 1493 1491 1488 1486 1484 1481 1478 1475
1488 1491 1493 1494 1495 1496 1499 1500 1503 1506 1508 1511 1512 1514 1516 1518 1520 1522 1523 1524 1525 1526 1528 1529 1530 1530 1531 1533 1534 1535 1536 1537 1537 1537 1537 1537 1536 1536 1537 1537 1536 1536 1536 1536 1535 1535 1535 1534 1534 1533 1533 1531 1530 1529 1528 1527 1525 1524 1522 1521 1520 1519 1517 1517 1516 1514 1513 1511 1509 1507 1506 1505 1502 1500 1499 1498 1495 1492 1489 1485 1482 1480 1478 1475 1472
1486 1489 1491 1492 1493 1494 1497 1499 1501 1503 1505 1507 1509 1511 1513 1515 1516 1518 1519 1520 1522 1523 1525 1526 1526 1528 1529 1530 1531 1532 1533 1534 1534 1534 1533 1534 1533 1533 1533 1533 1533 1533 1533 1532 1532 1531 1531 1530 1530 1529 1529 1528 1527 1526 1524 1523 1521 1520 1518 1517 1516 1515 1514 1513 1512 1510 1509 1507 1505 1504 1502 1502 1500 1499 1497 1495 1492 1489 1486 1484 1481 1478 1475 1471 1469
1485 1487 1489 1490 1491 1492 1494 1496 1498 1500 1502 1504 1505 1507 1510 1511 1513 1514 1516 1517 1519 1520 1522 1522 1523 1525 1526 1527 1527 1528 1529 1530 1530 1530 1530 1530 1530 1529 1529 1529 1529 1529 1529 1529 1528 1528 1527 1526 1526 1525 1525 1524 1523 1522 1521 1519 1517 1516 1514 1513 1512 1510 1509 1509 1508 1506 1504 1503 1501 1500 1499 1499 1498 1497 1495 1492 1489 1486 1483 1481 1479 1475 1472 1468 1465
1483 1485 1486 1487 1488 1490 1492 1493 1495 1497 1499 1500 1502 1504 1506 1507 1509 1511 1513 1514 1515 1517 1518 1519 1520 1521 1522 1523 1524 1524 1526 1527 1527 1527 1527 1527 1527 1526 1525 1525 1525 1524 1525 1525 1524 1523 1523 1522 1522 1521 1520 1520 1519 1518 1517 1515 1513 1511 1510 1509 1507 1506 1505 1505 1504 1502 1500 1499 1498 1497 1497 1497 1495 1493 1491 1489 1486 1483 1480 1477 1475 1472 1468 1465 1461
1480 1482 1483 1484 1486 1487 1488 1490 1492 1494 1496 1497 1499 1501 1503 1505 1507 1508 1510 1511 1512 1513 1515 1516 1517 1518 1518 1519 1520 1521 1522 1524 1524 1523 1523 1523 1523 1522 1522 1521 1520 1520 1521 1520 1520 1519 1518 1518 1517 1516 1516 1516 1515 1514 1513 1511 1509 1507 1506 1504 1503 1501 1501 1501 1499 1497 1496 1495 1494 1494 1493 1492 1491 1489 1487 1486 1484 1481 1478 1474 1472 1469 1466 1463 1459
1477 1479 1480 1481 1483 1484 1485 1488 1489 1491 1493 1494 1496 1498 1500 1502 1504 1506 1507 1508 1509 1511 1512 1513 1513 1514 1515 1516 1517 1517 1518 1519 1520 1520 1519 1520 1519 1519 1518 1517 1516 1516 1516 1516 1515 1514 1514 1513 1513 1512 1511 1511 1511 1509 1508 1507 1505 1503 1502 1500 1498 1497 1497 1497 1494 1493 1492 1490 1490 1489 1489 1488 1487 1485 1484 1482 1480 1478 1475 1472 1469 1467 1464 1461 1458
1475 1477 1477 1478 1480 1481 1483 1485 1486 1488 1490 1492 1494 1496 1498 1500 1501 1502 1503 1505 1506 1507 1508 1509 1510 1510 1511 1512 1513 1513 1514 1515 1516 1516 1516 1516 1515 1515 1514 1512 1512 1512 1512 1511 1510 1510 1509 1508 1508 1508 1507 1507 1506 1505 1504 1502 1501 1499 1498 1496 1494 1493 1493 1492 1490 1488 1487 1486 1485 1485 1485 1484 1483 1481 1480 1479 1477 1475 1473 1470 1467 1465 1462 1458 1456
1474 1474 1475 1476 1477 1479 1480 1482 1484 1486 1488 1490 1492 1493 1494 1496 1497 1499 1500 1501 1502 1503 1504 1505 1505 1506 1507 1508 1508 1509 1509 1510 1511 1512 1512 1512 1511 1510 1509 1508 1508 1508 1507 1506 1505 1505 1504 1504 1503 1504 1503 1502 1501 1500 1499 1498 1496 1494 1493 1491 1490 1490 1489 1487 1485 1484 1483 1482 1482 1482 1481 1480 1479 1477 1476 1475 1474 1472 1470 1468 1465 1463 1460 1456 1453
1471 1472 1473 1474 1475 1476 1478 1480 1482 1484 1485 1487 1488 1489 1491 1493 1494 1495 1497 1498 1498 1499 1500 1501 1501 1502 1503 1503 1503 1504 1505 1505 1506 1507 1507 1507 1507 1506 1504 1504 1504 1504 1502 1501 1500 1500 1499 1499 1499 1499 1499 1498 1497 1496 1494 1493 1492 1490 1488 1487 1486 1486 1484 1482 1481 1480 1480 1479 1478 1478 1478 1477 1475 1474 1473 1472 1470 1469 1467 1465 1463 1460 1458 1455 1452
1469 1469 1471 1472 1473 1475 1477 1478 1480 1482 1483 1484 1485 1487 1488 1489 1490 1492 1493 1494 1494 1495 1496 1497 1497 1497 1498 1498 1498 1499 1500 1501 1501 1502 1502 1503 1502 1501 1500 1499 1499 1498 1497 1496 1495 1495 1495 1495 1494 1494 1493 1492 1492 1491 1490 1489 1487 1485 1484 1484 1483 1482 1480 1478 1477 1477 1476 1475 1475 1474 1473 1473 1471 1470 1469 1468 1467 1466 1464 1462 1460 1458 1455 1453 1451
1467 1468 1469 1471 1473 1474 1476 1477 1478 1480 1481 1482 1483 1484 1485 1486 1487 1488 1489 1490 1491 1491 1492 1492 1493 1493 1493 1494 1494 1495 1496 1496 1497 1497 1497 1498 1497 1497 1496 1495 1494 1493 1491 1491 1490 1490 1490 1490 1489 1489 1488 1487 1486 1486 1484 1483 1482 1481 1481 1480 1479 1477 1475 1474 1474 1473 1472 1471 1470 1470 1470 1469 1467 1466 1465 1464 1463 1462 1460 1459 1457 1455 1453 1451 1449
1466 1468 1469 1471 1472 1474 1475 1476 1477 1478 1479 1480 1481 1482 1483 1484 1485 1485 1486 1487 1487 1487 1488 1488 1489 1489 1489 1490 1490 1491 1492 1492 1492 1492 1492 1492 1492 1492 1491 1490 1489 1488 1486 1485 1485 1485 1485 1485 1484 1483 1482 1481 1481 1480 1478 1477 1477 1477 1477 1475 1474 1473 1472 1471 1470 1469 1468 1467 1466 1466 1466 1465 1464 1463 1462 1461 1460 1458 1456 1455 1454 1453 1450 1448 1446
1466 1468 1469 1470 1471 1473 1474 1475 1476 1477 1478 1478 1479 1480 1481 1481 1482 1483 1483 1484 1484 1484 1485 1485 1485 1485 1486 1486 1487 1487 1487 1487 1487 1487 1487 1487 1486 1486 1486 1485 1484 1483 1482 1481 1480 1479 1478 1478 1478 1477 1477 1476 1475 1473 1472 1472 1473 1472 1471 1470 1469 1469 1468 1467 1466 1464 1463 1463 1462 1462 1462 1461 1460 1460 1458 1457 1456 1455 1453 1451 1450 1449 1447 1444 1442
1465 1467 1468 1469 1470 1471 1472 1474 1474 1475 1476 1477 1477 1478 1478 1479 1480 1480 1480 1480 1481 1481 1481 1481 1482 1482 1482 1482 1483 1483 1482 1482 1482 1482 1482 1481 1481 1481 1480 1479 1479 1478 1477 1476 1475 1474 1473 1472 1472 1472 1471 1470 1469 1467 1466 1466 1466 1466 1466 1466 1465 1465 1464 1463 1462 1460 1459 1459 1458 1458 1458 1457 1457 1456 1455 1454 1453 1452 1449 1447 1446 1445 1443 1440 1437
1464 1466 1467 1468 1469 1470 1471 1472 1473 1474 1474 1475 1476 1476 1476 1477 1477 1477 1477 1477 1478 1478 1478 1478 1478 1478 1478 1478 1478 1478 1477 1477 1477 1477 1476 1476 1475 1474 1474 1473 1473 1472 1471 1471 1471 1470 1469 1467 1467 1466 1465 1464 1463 1462 1462 1461 1460 1460 1461 1461 1461 1461 1460 1459 1457 1456 1456 1455 1454 1454 1454 1454 1453 1452 1452 1451 1450 1449 1447 1445 1443 1441 1439 1437 1434
1463 1465 1466 1467 1468 1469 1470 1470 1471 1472 1472 1473 1473 1473 1474 1474 1474 1474 1474 1474 1474 1474 1474 1474 1474 1474 1474 1474 1473 1473 1472 1472 1472 1471 1470 1469 1468 1468 1468 1467 1467 1466 1466 1466 1466 1465 1464 1463 1462 1461 1460 1459 1459 1458 1457 1457 1457 1456 1456 1457 1457 1456 1456 1455 1453 1453 1452 1451 1450 1450 1450 1450 1449 1448 1448 1447 1446 1445 1443 1441 1440 1437 1436 1433 1431
1462 1463 1464 1465 1466 1467 1468 1468 1469 1469 1470 1470 1470 1470 1470 1470 1470 1470 1470 1470 1470 1470 1470 1470 1470 1470 1469 1469 1469 1468 1467 1467 1466 1465 1464 1463 1463 1462 1462 1461 1461 1461 1461 1461 1461 1459 1458 1457 1456 1456 1455 1455 1454 1453 1453 1452 1452 1452 1452 1453 1452 1452 1451 1450 1449 1449 1448 1447 1446 1446 1446 1445 1445 1445 1444 1443 1442 1442 1440 1438 1437 1434 1432 1430 1427
1461 1462 1462 1463 1464 1464 1465 1466 1466 1466 1466 1466 1467 1467 1467 1466 1466 1466 1466 1466 1466 1466 1465 1465 1465 1465 1464 1464 1464 1463 1462 1461 1461 1459 1458 1457 1457 1456 1456 1456 1456 1455 1456 1456 1455 1454 1452 1452 1451 1451 1450 1450 1449 1448 1448 1447 1448 1448 1448 1448 1448 1447 1447 1446 1445 1445 1444 1443 1443 1443 1442 1442 1441 1440 1440 1439 1438 1437 1437 1435 1434 1431 1429 1427 1424
1459 1459 1460 1461 1461 1462 1462 1462 1463 1463 1463 1463 1463 1463 1463 1463 1463 1462 1462 1462 1462 1462 1461 1461 1461 1460 1459 1459 1458 1457 1457 1456 1455 1455 1454 1453 1452 1451 1451 1451 1451 1451 1451 1451 1449 1448 1448 1447 1446 1446 1445 1444 1444 1443 1443 1443 1443 1444 1444 1444 1443 1443 1442 1442 1442 1441 1440 1439 1439 1439 1439 1438 1437 1436 1436 1435 1434 1433 1432 1432 1430 1428 1426 1424 1422
1457 1457 1458 1458 1459 1459 1459 1459 1460 1460 1460 1460 1460 1459 1459 1459 1459 1459 1458 1458 1458 1457 1457 1457 1456 1455 1455 1454 1454 1453 1452 1451 1450 1450 1449 1449 1448 1448 1447 1447 1447 1447 1448 1447 1445 1443 1443 1442 1442 1441 1441 1440 1439 1439 1439 1439 1439 1440 1439 1439 1439 1439 1439 1439 1438 1437 1436 1436 1435 1435 1435 1435 1434 1433 1432 1432 1430 1429 1428 1427 1426 1425 1423 1420 1419
1454 1455 1455 1456 1456 1456 1456 1456 1456 1456 1456 1456 1456 1456 1456 1455 1455 1455 1454 1454 1454 1453 1453 1452 1452 1451 1451 1451 1450 1449 1448 1447 1447 1446 1446 1445 1445 1445 1444 1444 1444 1444 1445 1445 1443 1441 1440 1438 1437 1436 1436 1435 1435 1435 1434 1434 1434 1434 1435 1434 1434 1435 1435 1434 1433 1432 1432 1432 1431 1431 1432 1431 1430 1429 1429 1428 1427 1426 1424 1424 1423 1421 1419 1417 1415
1452 1452 1453 1453 1453 1453 1453 1453 1453 1453 1453 1452 1452 1452 1452 1451 1451 1451 1451 1450 1450 1450 1449 1449 1448 1447 1447 1446 1446 1445 1445 1444 1444 1443 1443 1442 1442 1442 1441 1440 1440 1440 1441 1441 1440 1439 1438 1436 1434 1433 1432 1431 1430 1430 1430 1429 1429 1430 1430 1430 1430 1430 1430 1430 1429 1428 1428 1428 1427 1427 1428 1427 1427 1426 1425 1424 1423 1422 1421 1420 1419 1417 1415 1414 1412
1449 1449 1450 1450 1450 1450 1450 1450 1450 1449 1449 1449 1449 1448 1448 1448 1448 1447 1447 1447 1447 1446 1446 1446 1445 1444 1443 1443 1442 1442 1442 1441 1441 1440 1440 1439 1439 1438 1438 1437 1436 1436 1436 1435 1435 1434 1433 1433 1432 1431 1429 1428 1427 1426 1426 1425 1425 1425 1425 1426 1426 1425 1425 1425 1425 1424 1424 1423 1423 1424 1423 1423 1423 1422 1421 1420 1420 1419 1418 1417 1416 1414 1412 1410 1408
1447 1447 1447 1447 1447 1447 1447 1447 1446 1446 1446 1446 1445 1445 1445 1445 1444 1444 1444 1444 1443 1443 1443 1442 1442 1442 1441 1440 1439 1439 1438 1438 1437 1437 1436 1436 1435 1435 1434 1433 1432 1431 1430 1430 1429 1428 1427 1427 1426 1425 1425 1424 1423 1422 1422 1421 1421 1421 1421 1421 1421 1421 1421 1420 1420 1420 1420 1419 1420 1420 1420 1420 1419 1419 1418 1417 1416 1416 1414 1413 1412 1410 1409 1407 1406
1444 1444 1444 1444 1444 1444 1444 1444 1443 1443 1443 1443 1442 1442 1442 1441 1441 1441 1440 1440 1440 1439 1439 1439 1438 1438 1438 1437 1437 1436 1435 1434 1434 1433 1433 1432 1432 1431 1430 1429 1428 1427 1425 1424 1424 1422 1421 1421 1420 1419 1419 1418 1417 1417 1416 1416 1416 1416 1416 1417 1417 1416 1416 1416 1415 1415 1415 1416 1416 1416 1416 1416 1416 1415 1414 1413 1413 1412 1411 1410 1408 1407 1405 1404 1403
1441 1441 1441 1441 1441 1441 1441 1441 1440 1440 1440 1440 1440 1439 1439 1439 1438 1438 1438 1437 1437 1437 1436 1436 1435 1435 1434 1434 1433 1432 1432 1431 1430 1430 1429 1429 1428 1427 1426 1425 1424 1423 1421 1420 1419 1417 1416 1415 1414 1413 1413 1412 1412 1411 1411 1411 1411 1412 1412 1412 1412 1411 1411 1411 1411 1411 1412 1412 1413 1413 1413 1412 1412 1412 1411 1410 1409 1409 1408 1406 1405 1403 1402 1400 1399
1438 1438 1438 1438 1438 1438 1438 1438 1438 1438 1438 1438 1437 1437 1437 1437 1436 1436 1436 1435 1435 1434 1434 1433 1432 1432 1431 1431 1430 1429 1428 1427 1427 1426 1425 1425 1424 1423 1422 1421 1419 1418 1416 1415 1414 1412 1411 1409 1408 1407 1407 1406 1406 1406 1406 1406 1406 1407 1407 1407 1406 1406 1407 1407 1407 1407 1408 1408 1409 1409 1409 1409 1409 1408 1407 1407 1406 1405 1404 1403 1401 1400 1398 1397 1396
1436 1436 1436 1436 1436 1436 1436 1436 1436 1436 1436 1436 1435 1435 1435 1434 1434 1434 1433 1433 1432 1432 1431 1430 1429 1429 1428 1427 1426 1425 1424 1423 1423 1422 1421 1420 1419 1418 1417 1416 1414 1413 1411 1410 1409 1407 1406 1405 1404 1403 1402 1401 1401 1401 1401 1401 1401 1401 1402 1401 1401 1401 1402 1402 1403 1403 1404 1404 1405 1405 1405 1406 1405 1404 1404 1403 1403 1402 1401 1399 1398 1396 1395 1394 1393
1434 1434 1434 1434 1435 1434 1435 1435 1434 1434 1434 1433 1433 1433 1432 1432 1431 1431 1431 1430 1429 1429 1428 1427 1427 1426 1425 1424 1423 1422 1421 1421 1420 1418 1417 1416 1415 1414 1412 1411 1410 1408 1407 1405 1404 1403 1401 1400 1399 1398 1397 1397 1396 1396 1396 1396 1396 1396 1396 1396 1396 1397 1397 1398 1399 1400 1400 1400 1401 1401 1401 1402 1401 1401 1400 1400 1399 1398 1397 1396 1394 1393 1392 1391 1390
1432 1432 1433 1433 1433 1433 1433 1432 1432 1432 1431 1431 1431 1430 1430 1429 1429 1428 1428 1427 1427 1426 1425 1425 1424 1423 1422 1422 1421 1420 1419 1418 1417 1416 1415 1413 1412 1411 1409 1408 1406 1405 1403 1402 1400 1399 1397 1396 1395 1395 1394 1393 1392 1392 1392 1392 1392 1392 1392 1392 1392 1393 1393 1394 1395 1396 1396 1397 1397 1397 1398 1398 1398 1397 1397 1396 1395 1394 1393 1392 1391 1390 1389 1388 1387
1430 1431 1431 1431 1431 1431 1431 1430 1430 1430 1429 1429 1428 1428 1427 1427 1426 1426 1425 1425 1424 1423 1423 1422 1422 1421 1420 1419 1419 1418 1417 1416 1415 1413 1412 1411 1409 1408 1406 1405 1404 1402 1401 1399 1398 1396 1395 1393 1392 1391 1391 1390 1389 1389 1388 1388 1388 1388 1388 1388 1388 1389 1390 1391 1392 1393 1393 1393 1393 1394 1394 1394 1394 1393 1393 1392 1392 1391 1390 1389 1388 1387 1386 1385 1384
1429 1429 1429 1429 1429 1429 1428 1428 1428 1427 1427 1427 1426 1425 1425 1425 1424 1423 1423 1422 1422 1421 1421 1420 1420 1419 1418 1417 1416 1415 1414 1413 1412 1411 1410 1408 1407 1405 1404 1403 1401 1400 1398 1397 1396 1394 1393 1391 1390 1389 1388 1387 1387 1386 1385 1385 1385 1384 1384 1384 1385 1386 1387 1388 1389 1389 1389 1389 1390 1390 1390 1390 1390 1390 1389 1389 1388 1387 1386 1386 1385 1384 1383 1382 1381
1427 1427 1427 1426 1426 1426 1426 1426 1425 1425 1424 1424 1424 1423 1423 1422 1422 1421 1421 1420 1420 1419 1418 1418 1417 1417 1416 1415 1414 1413 1412 1411 1410 1408 1407 1406 1404 1403 1402 1400 1399 1398 1396 1395 1394 1392 1391 1389 1388 1386 1386 1385 1384 1383 1382 1382 1381 1381 1381 1382 1382 1383 1384 1385 1385 1385 1386 1386 1386 1387 1387 1386 1386 1386 1385 1385 1384 1384 1383 1382 1382 1381 1380 1379 1378
1424 1424 1424 1424 1424 1424 1423 1423 1423 1422 1422 1421 1421 1421 1420 1420 1419 1419 1418 1418 1417 1417 1416 1416 1415 1414 1413 1412 1411 1410 1409 1408 1407 1406 1405 1403 1402 1401 1399 1398 1397 1395 1394 1393 1391 1390 1389 1387 1386 1384 1383 1382 1382 1381 1380 1380 1380 1379 1380 1380 1380 1381 1382 1382 1382 1382 1383 1383 1383 1383 1383 1383 1382 1382 1382 1381 1381 1380 1380 1379 1379 1378 1377 1376 1375
1422 1422 1422 1422 1421 1421 1421 1420 1420 1420 1419 1419 1418 1418 1418 1417 1417 1417 1416 1416 1415 1415 1414 1413 1413 1412 1411 1410 1409 1408 1407 1406 1405 1404 1402 1401 1400 1399 1397 1396 1394 1393 1392 1390 1389 1388 1386 1385 1384 1383 1382 1381 1380 1379 1379 1378 1378 1378 1378 1378 1379 1379 1379 1379 1379 1380 1380 1380 1380 1380 1379 1379 1379 1379 1378 1378 1378 1377 1377 1377 1376 1375 1374 1373 1373
1419 1419 1419 1419 1419 1419 1418 1418 1418 1417 1417 1417 1416 1416 1415 1415 1415 1414 1414 1414 1413 1412 1412 1411 1410 1409 1408 1407 1407 1406 1405 1403 1402 1401 1400 1399 1398 1396 1395 1394 1392 1391 1389 1388 1387 1385 1384 1383 1382 1381 1380 1379 1378 1378 1377 1377 1377 1376 1376 1376 1376 1376 1376 1376 1376 1377 1377 1376 1376 1376 1376 1375 1375 1375 1375 1375 1375 1374 1374 1374 1373 1372 1371 1371 1370
1417 1417 1417 1417 1416 1416 1416 1416 1415 1415 1415 1415 1414 1414 1413 1413 1412 1412 1411 1411 1410 1409 1409 1408 1407 1407 1406 1405 1404 1403 1402 1401 1400 1399 1398 1397 1395 1394 1393 1392 1390 1389 1387 1386 1385 1383 1382 1381 1380 1379 1378 1377 1376 1376 1375 1375 1374 1374 1374 1374 1374 1374 1374 1374 1374 1374 1373 1373 1373 1373 1372 1372 1372 1372 1372 1372 1372 1372 1371 1371 1370 1369 1369 1368 1368
1415 1414 1414 1414 1414 1414 1414 1414 1413 1413 1413 1412 1412 1411 1411 1410 1409 1409 1408 1408 1407 1407 1406 1405 1405 1404 1403 1402 1402 1401 1400 1399 1398 1397 1395 1394 1393 1392 1391 1390 1388 1387 1385 1384 1383 1381 1380 1379 1378 1377 1376 1375 1374 1374 1373 1372 1372 1372 1371 1371 1371 1371 1371 1371 1371 1371 1370 1370 1370 1369 1369 1369 1369 1369 1369 1369 1369 1369 1368 1368 1367 1367 1366 1366 1365